Location: Brabourne
(51.1333°N, 1.0000°E)
Time: 06:27:27
(UTC+00:00)

NOSS 3-1 (A) - Pass Details

Date: 31 October 2021
Orbit: 721 x 1491 km, 63.4° (Epoch: 22 November)

Event Time Altitude Azimuth Distance (km) Brightness Sun altitude
Rises 19:58:29 0° 276° (W) 3,417 7.4 -32.7°
Reaches altitude 10° 20:01:05 10° 287° (WNW) 2,578 6.6 -33.0°
Maximum altitude 20:06:25 31° 349° (N) 1,690 4.9 -33.8°
Enters shadow 20:07:37 29° 8° (N) 1,791 4.9 -34.0°
